Regional Weather Roundup
Issued by NWS

Home | Current Version | Previous Version | Text Only | Print | Product List | Glossary On
Versions: 1 2 3 4 5 6 7 8 9 10 11 12 13 14 15 16 17 18 19 20 21 22 23 24 25 26
000
ASUS45 KPSR 140210
RWRAZ

ARIZONA HOURLY REGIONAL WEATHER ROUNDUP
NATIONAL WEATHER SERVICE PHOENIX AZ
700 PM MST WED DEC 13 2017

NOTE: FAIR INDICATES FEW OR NO CLOUDS BELOW 12,000 FEET WITH NO
SIGNIFICANT WEATHER AND/OR OBSTRUCTIONS TO VISIBILITY.

AZZ001>003-036-140300-
NORTHWEST ARIZONA

CITY           SKY/WX    TMP DP  RH WIND       PRES   REMARKS
BULLHEAD CITY  CLEAR     64   5   9 NE8       29.92F
KINGMAN        CLEAR     46   9  22 SE15      30.00F
$$

AZZ004>008-015-016-018-140300-
NORTH CENTRAL ARIZONA

CITY           SKY/WX    TMP DP  RH WIND       PRES   REMARKS
GRAND CANYON   PTCLDY    28   3  34 NE6       30.09F WCI  22
WILLIAMS       PTCLDY    36  -2  20 SE3       30.08S
PRESCOTT       CLEAR     44   4  19 S9        30.04F
FLAGSTAFF      CLEAR     30   5  34 CALM      30.10F
PAYSON         CLEAR     50  -4  10 SE5       30.05S
PAGE           PTCLDY    42  14  32 CALM      30.01S
$$

AZZ009>014-017-140300-
NORTHEAST ARIZONA

CITY           SKY/WX    TMP DP  RH WIND       PRES   REMARKS
WINSLOW        CLOUDY    28  -6  22 S7        30.04F WCI  21
SAINT JOHNS    CLOUDY    33   0  24 SW3       30.06F
WINDOW ROCK    MOCLDY    30   2  30 CALM      30.06F
SHOW LOW       PTCLDY    34   1  25 SE3       30.10F
$$

AZZ540-542>544-546-548-140300-
GREATER PHOENIX AREA

CITY           SKY/WX    TMP DP  RH WIND       PRES   REMARKS
PHOENIX        CLEAR     65  16  15 SW6       29.91S
BUCKEYE        CLEAR     55  16  21 N5        29.92F
LUKE AFB       CLEAR     63  19  18 SW3       29.90F
DEER VALLEY    CLEAR     61   9  12 NE3       29.92S
SCOTTSDALE     CLEAR     63  18  17 NE5       29.94S
MESA-FALCON    CLEAR     64  16  15 CALM      29.93S
MESA-GATEWAY   CLEAR     63  18  17 CALM      29.93S
CHANDLER       CLEAR     63  21  20 CALM      29.92S
$$

AZZ539-553-140300-
SOUTHWEST MARICOPA COUNTY AND PINAL COUNTY

CITY           SKY/WX    TMP DP  RH WIND       PRES   REMARKS
CASA GRANDE    NOT AVBL
GILA BEND      CLEAR     64  10  12 SE1       29.92S
$$

AZZ503-504-507>509-140300-
SOUTHEAST ARIZONA

CITY           SKY/WX    TMP DP  RH WIND       PRES   REMARKS
TUCSON         CLEAR     62  24  23 W7        29.98S
DAVIS-MONTHAN  CLEAR     61  21  21 W6        29.96S
NOGALES        PTCLDY    56  27  32 E3        30.02R
SIERRA VISTA   CLEAR     55  25  31 W9        30.06R
DOUGLAS        CLEAR     53  25  33 SE5       30.03R
SAFFORD        CLEAR     49  13  23 N3        29.98S
$$

AZZ532-140300-
SOUTHWEST ARIZONA

CITY           SKY/WX    TMP DP  RH WIND       PRES   REMARKS
YUMA           CLEAR     65  12  12 N5        29.92F
$$

CAZ041-043-047-048-061-525>527-560>570-140300-
SOUTHERN CALIFORNIA

CITY           SKY/WX    TMP DP  RH WIND       PRES   REMARKS
DOWNTOWN L.A.  CLEAR     66  22  18 CALM      29.94R
L.A. AIRPORT   CLEAR     65  45  48 CALM      29.95R
SAN DIEGO      CLEAR     65  47  52 CALM      29.96R
BURBANK        CLEAR     68  23  18 VRB3      29.95R
ONTARIO        PTCLDY    67  12  12 W7        29.95R
RIVERSIDE      CLEAR     70  31  23 CALM      29.95R
PALM SPRINGS   CLEAR     66  33  29 CALM      29.95R
EL CENTRO NAS  CLEAR     61  21  21 SE7       29.92F
IMPERIAL       CLEAR     65  24  21 SE3       29.90F
BLYTHE         CLEAR     57  11  16 CALM      29.93S
NEEDLES        CLEAR     66  -1   7 NW5       29.93F
$$

NVZ020-UTZ003-140300-
SOUTHERN NEVADA-UTAH

CITY           SKY/WX    TMP DP  RH WIND       PRES   REMARKS
LAS VEGAS      MOCLDY    62  12  14 CALM      29.96S
SALT LAKE CITY CLOUDY    29  27  92 N10       30.24R FOG     WCI  20
$$

NMZ009-TXZ055-140300-
NEW MEXICO-WEST TEXAS

CITY           SKY/WX    TMP DP  RH WIND       PRES   REMARKS
ALBUQUERQUE    CLOUDY    42   4  20 E5        30.02F
EL PASO        PTCLDY    53  27  36 SW5       30.00S
$$


........................KEY........................
SKY/WX - SKY CONDITION/WEATHER
TMP    - TEMPERATURE IN FAHRENHEIT
DP     - DEW POINT IN FAHRENHEIT
RH     - RELATIVE HUMIDITY IN PERCENT
WIND   - DIRECTION AND SPEED IN MILES PER HOUR (MPH)
VRB    - VARIABLE WIND DIRECTION
PRES   - MEAN SEA LEVEL PRESSURE IN INCHES OF MERCURY
         F - FALLING PRESSURE   R - RISING PRESSURE
         S - STEADY PRESSURE
VSB    - VISIBILITY IN MILES
HX     - HEAT INDEX IN FAHRENHEIT
WCI    - WIND CHILL INDEX IN FAHRENHEIT
TC     - TEMPERATURE IN CELSIUS WHICH IS ALSO KNOWN AS
         TEMPERATURE IN CENTIGRADE
AFB    - AIR FORCE BASE
         LUKE AFB IS LUKE AIR FORCE BASE
         DAVIS-MONTHAN IS DAVIS-MONTHAN AIR FORCE BASE
NAS    - NAVAL AIR STATION
         EL CENTRO NAS IS EL CENTRO NAVAL AIR STATION
N/A    - NOT AVAILABLE





USA.gov is the U.S. government's official web portal to all federal, state and local government web resources and services.